Upstream stations:
SHEF ID: TIFM7 Elk River near Tiff City, Mo
STATION TYPE:
Regulating: Stage = 15.00, Flow = 21304
PRECIP STAGE STAGE(2) RIV-FLOW BAT-LOAD
in ft ft cfs volt
Ccp-Rev Ccp-Rev Ccp-Rev Ccp-Rev Ccp-Rev
(US/Central)
03/29 00:00 0.00 4.96 4.95 1164 11.71
03/29 01:00 0.00 4.95 35.36 1155 11.71
03/29 02:00 0.00 4.94 4.93 1147 11.70
03/29 03:00 0.00 4.94 4.93 1147 11.68
03/29 04:00 0.00 4.93 4.92 1139 11.66
03/29 05:00 0.00 4.93 4.91 1139 11.65
03/29 06:00 0.00 4.92 4.91 1130 11.62
03/29 07:00 0.00 4.91 4.90 1122 11.59
03/29 08:00 0.00 4.90 4.90 1114 11.61
03/29 09:00 0.00 4.90 4.89 1114 11.95
03/29 10:00 0.00 4.90 4.89 1114 12.65
03/29 11:00 0.00 4.90 4.85 1114 12.62
03/29 12:00 0.00 4.89 4.84 1106 12.70
03/29 13:00 0.00 4.89 4.86 1106 12.50
03/29 14:00 0.00 4.88 4.83 1098 12.63
03/29 15:00 0.00 4.87 4.82 1090 12.45
03/29 16:00 0.00 4.87 4.81 1090 12.42
03/29 17:00 0.00 4.86 4.82 1082 12.48
03/29 18:00 0.00 4.86 4.79 1082 12.42
03/29 19:00 0.00 4.85 4.80 1074 12.35
03/29 20:00 0.00 4.84 4.82 1066 12.06
03/29 21:00 0.00 4.83 4.81 1058 11.76
03/29 22:00 0.00 4.83 4.81 1058 11.66
03/29 23:00 0.00 4.82 4.79 1050 11.63